TimeEDT,TemperatureF,Dew PointF,Humidity,Sea Level PressureIn,VisibilityMPH,Wind Direction,Wind SpeedMPH,Gust SpeedMPH,PrecipitationIn,Events,Conditions,WindDirDegrees,DateUTC
12:56 AM,75.0,69.1,82,30.05,7.0,NW,3.5,-,N/A,,Scattered Clouds,320,2013-08-23 04:56:00
1:56 AM,75.0,69.1,82,30.04,6.0,Calm,Calm,-,N/A,,Haze,0,2013-08-23 05:56:00
2:56 AM,75.0,70.0,84,30.03,7.0,North,3.5,-,N/A,,Scattered Clouds,10,2013-08-23 06:56:00
3:56 AM,73.9,70.0,87,30.03,7.0,Calm,Calm,-,N/A,,Overcast,0,2013-08-23 07:56:00
4:56 AM,73.0,69.1,87,30.04,6.0,NNW,3.5,-,N/A,,Clear,340,2013-08-23 08:56:00
5:56 AM,72.0,69.1,91,30.04,6.0,North,4.6,-,N/A,,Scattered Clouds,10,2013-08-23 09:56:00
6:56 AM,72.0,69.1,91,30.06,7.0,North,3.5,-,N/A,,Mostly Cloudy,10,2013-08-23 10:56:00
7:56 AM,72.0,69.1,91,30.08,5.0,North,4.6,-,N/A,,Overcast,360,2013-08-23 11:56:00
8:56 AM,73.9,69.1,85,30.08,7.0,NE,4.6,-,N/A,,Scattered Clouds,50,2013-08-23 12:56:00
9:56 AM,77.0,69.1,76,30.08,8.0,NNE,5.8,-,N/A,,Scattered Clouds,30,2013-08-23 13:56:00
10:56 AM,80.1,68.0,67,30.09,9.0,Calm,Calm,-,N/A,,Scattered Clouds,0,2013-08-23 14:56:00
11:56 AM,82.9,69.1,63,30.09,9.0,North,3.5,-,N/A,,Scattered Clouds,360,2013-08-23 15:56:00
12:56 PM,84.9,69.1,59,30.07,10.0,Calm,Calm,-,N/A,,Scattered Clouds,0,2013-08-23 16:56:00
1:56 PM,86.0,66.0,51,30.06,10.0,NE,6.9,-,N/A,,Scattered Clouds,40,2013-08-23 17:56:00
2:56 PM,87.1,64.9,48,30.05,10.0,NE,11.5,16.1,N/A,,Scattered Clouds,40,2013-08-23 18:56:00
3:56 PM,88.0,61.0,40,30.04,10.0,North,9.2,-,N/A,,Scattered Clouds,10,2013-08-23 19:56:00
4:56 PM,87.1,64.9,48,30.02,10.0,NNE,6.9,-,N/A,,Scattered Clouds,30,2013-08-23 20:56:00
5:56 PM,87.1,64.0,46,30.03,10.0,North,9.2,-,N/A,,Scattered Clouds,360,2013-08-23 21:56:00
6:56 PM,86.0,63.0,46,30.04,10.0,North,9.2,-,N/A,,Partly Cloudy,10,2013-08-23 22:56:00
7:56 PM,82.9,66.0,56,30.05,9.0,North,10.4,-,N/A,,Scattered Clouds,10,2013-08-23 23:56:00
8:56 PM,81.0,66.0,60,30.06,10.0,NNE,8.1,-,N/A,,Partly Cloudy,30,2013-08-24 00:56:00
9:56 PM,79.0,66.0,64,30.09,9.0,NNE,6.9,-,N/A,,Scattered Clouds,30,2013-08-24 01:56:00
10:56 PM,78.1,66.0,66,30.10,9.0,NNE,5.8,-,N/A,,Scattered Clouds,30,2013-08-24 02:56:00
11:56 PM,77.0,66.0,69,30.11,9.0,NNE,4.6,-,N/A,,Partly Cloudy,20,2013-08-24 03:56:00